Regional Weather Roundup
Issued by NWS Sterling, VA

Home | Current Version | Previous Version | Graphics & Text | Print | Product List | Glossary On
Versions: 1 2 3 4 5 6 7 8 9 10 11 12 13 14 15 16 17 18 19 20 21 22 23 24 25 26 27 28 29 30 31 32 33 34 35 36 37 38 39 40 41 42 43 44 45 46 47 48 49 50
000
ASUS41 KLWX 220410
RWRLWX

REGIONAL WEATHER ROUNDUP
NATIONAL WEATHER SERVICE BALTIMORE MD/WASHINGTON DC
1200 AM EDT FRI MAY 22 2015

Note: "FAIR" indicates few or no clouds below 12,000 feet
with no significant weather and/or obstructions to visibility.
 TC=TEMPERATURE CELSIUS

 * =Non NWS site. Station does not report precipitation (e.g. rain,
    snow, etc.), thunder, or fog.

DCZ001-MDZ009-015-VAZ040>042-051-053>054-220500-
WASHINGTON METRO

CITY           SKY/WX    TMP DP  RH WIND       PRES   REMARKS
WASHINGTON NAT PTCLDY    54  48  80 NW6       29.96S
DULLES         PTCLDY    51  49  92 NW8       29.97S
ANDREWS AFB    CLEAR     50  49  97 W5        29.94S
FT BELVOIR     FOG       48  46  93 CALM      29.96R VSB 3/4
QUANTICO       PTCLDY    53  49  86 N5        29.97S
COLLEGE PARK*  CLEAR     50  48  93 CALM      29.95S
LEESBURG*      MOCLDY    52  52 100 NW8       29.98S
GAITHERSBURG*  CLOUDY    50  46  87 NW6       29.99S

$$

MDZ006>007-011-014-220500-
BALTIMORE METRO

CITY           SKY/WX    TMP DP  RH WIND       PRES   REMARKS
BWI AIRPORT    PTCLDY    49  47  93 W7        29.94S
MD SCIENCE CTR   N/A     53  47  79 MISG      29.94S
MARTIN STATE   PTCLDY    50  48  93 W3        29.95S
ANNAPOLIS      CLEAR     51  48  89 W7        29.93S
FORT MEADE*    PTCLDY    46  45  93 CALM      29.97S

$$

MDZ012-015-019>023-220500-
MARYLAND EASTERN SHORE

CITY           SKY/WX    TMP DP  RH WIND       PRES   REMARKS
OCEAN CITY     CLOUDY    53  51  93 N10       29.89R
SALISBURY      CLOUDY    52  51  97 NW12      29.91R
BAY BRIDGE AP*   N/A    N/A N/A N/A NW8       29.94R
CAMBRIDGE*     CLOUDY    54  50  87 N5        29.92F
EASTON*        PTCLDY    52  52 100 N3        29.97S

$$

MDZ017>025-220500-
SOUTHERN MARYLAND

CITY           SKY/WX    TMP DP  RH WIND       PRES   REMARKS
PATUXENT RIVER MOCLDY    53  49  86 NW10      29.93S
ST INIGOES     MOCLDY    53  50  89 NW6       29.93S
LEONARDTOWN*   MOCLDY    48  46  93 W3        29.96R

$$

MDZ003>005-220500-
NORTH CENTRAL MARYLAND

CITY           SKY/WX    TMP DP  RH WIND       PRES   REMARKS
FREDERICK*     CLOUDY    52  52 100 CALM      29.99S
HAGERSTOWN APT CLOUDY    52  49  89 NW10      29.97S
WESTMINSTER*   CLOUDY    54  48  82 NW6       29.95R

$$

MDZ501>502-220500-
WESTERN MARYLAND

CITY           SKY/WX    TMP DP  RH WIND       PRES   REMARKS
OAKLAND*       FOG       41 N/A N/A W10       30.03R VSB 3/4
CUMBERLAND*    CLOUDY    52  45  76 NW5       30.06S

$$

VAZ025>031-220500-
SHENANDOAH VALLEY

CITY           SKY/WX    TMP DP  RH WIND       PRES   REMARKS
WINCHESTER*    PTCLDY    52  45  76 NW14G22   29.99S
FRONT ROYAL*   CLOUDY    52  48  87 NW10G20   30.00R
LURAY*         CLOUDY    55  48  76 NW14      30.01R
NEW MARKET*    CLOUDY    53  46  79 N3        30.01R
STAUNTON*      MOCLDY    54  48  80 NW7       30.03R
WAYNESBORO*    CLOUDY    54  48  81 W7        30.01R

$$

WVZ021-048>050-054>055-220500-
EASTERN WEST VIRGINIA PANHANDLE

CITY           SKY/WX    TMP DP  RH WIND       PRES   REMARKS
MARTINSBURG    MOCLDY    53  45  74 NW15G22   29.99R
PETERSBURG*    CLOUDY    51  44  78 CALM      30.05S

$$

VAZ036>039-050-220500-
CENTRAL FOOTHILLS

CITY           SKY/WX    TMP DP  RH WIND       PRES   REMARKS
CHARLOTTESVILL CLOUDY    53  51  93 CALM      29.99R
CULPEPER*      PTCLDY    52  50  94 NW3       29.99S
ORANGE*        CLOUDY    54  52  94 SW3       30.00S
GORDONSVILLE*  MOCLDY    52  51  96 NW3       29.99R
WARRENTON*     FAIR      52  52  99 W5        29.97S

$$

VAZ055>057-220500-
NORTH AND CENTRAL PIEDMONT

CITY           SKY/WX    TMP DP  RH WIND       PRES   REMARKS
FREDERICKSBRG* PTCLDY    54  54 100 CALM      29.96S
STAFFORD*      PTCLDY    50  49  97 W5        30.00F FOG

$$

NCZ024-NYZ072-PAZ021-071-VAZ022-071-220500-
OTHER REGIONAL OBSERVATIONS

CITY           SKY/WX    TMP DP  RH WIND       PRES   REMARKS
NEW YORK CITY  CLOUDY    55  46  71 VRB3      29.91F
PHILADELPHIA   CLOUDY    54  47  77 NW5       29.92S
PITTSBURGH     CLEAR     47  41  80 W5        30.04R
ROANOKE        PTCLDY    56  44  64 W15       30.05R
RICHMOND       CLOUDY    55  50  83 NW10      29.97R
RALEIGH        PTCLDY    58  54  86 VRB3      29.97R

$$

ANZ530>537-220500-
MARINE OBSERVATIONS

STATION/POSITION TIME  TEMP    WIND        PRES
                       AIR SEA DIR/SP/G
                 (UTC) (F)     (DEG/KT/KT) (MB)
THOMAS PT LIGHT  0400   52 65  320/  9/ 10 1014.4R
BALT KEY BRIDGE  0300   54     260/  7/  9 1013.3F
LEWISETTA        0300   56 69              1013.5R
PINEY POINT      0300          350/ 15/ 17   N/A

$$



USA.gov is the U.S. government's official web portal to all federal, state and local government web resources and services.